EW6614 Weather Reports


Display with metric or nautical units.
time (UTC)temp
F
wind
direction
speed
MPH
gust
MPH
rain 1hr
in
rain 24hr
in
rain mn
in
humidity
%
barometer
mb
20260509134558 70 0 0.0 0.0 0.00 0.00 0.00 51 1010.5
20260509134517 70 152 0.0 0.0 0.00 0.00 0.00 62 1010.5
20260509133117 70 173 0.0 0.0 0.00 0.00 0.00 62 1010.3
20260509133055 70 0 0.0 0.0 0.00 0.00 0.00 50 1010.4
20260509131556 70 0 0.0 0.0 0.00 0.00 0.00 50 1010.4
20260509131520 70 174 0.0 0.0 0.00 0.00 0.00 62 1010.4
20260509130015 70 161 0.0 0.0 0.00 0.00 0.00 62 1010.1
20260509124555 70 0 0.0 0.0 0.00 0.00 0.00 50 1010.0
20260509124514 70 161 0.0 0.0 0.00 0.00 0.00 61 1010.0
20260509123058 70 0 0.0 0.0 0.00 0.00 0.00 50 1009.7
20260509123014 70 161 0.0 0.0 0.00 0.00 0.00 61 1009.7
20260509121558 70 0 0.0 0.0 0.00 0.00 0.00 50 1009.6
20260509121522 70 161 0.0 0.0 0.00 0.00 0.00 61 1009.6
20260509120016 70 161 0.0 2.0 0.00 0.00 0.00 61 1009.6
20260509114557 70 0 0.0 5.0 0.00 0.00 0.00 49 1009.5
20260509114512 70 161 0.0 3.0 0.00 0.00 0.00 61 1009.4
20260509113106 70 161 0.0 2.0 0.00 0.00 0.00 49 1009.5
20260509113011 70 161 0.0 2.0 0.00 0.00 0.00 61 1009.4
20260509111604 70 0 0.0 0.0 0.00 0.00 0.00 49 1009.6
20260509111512 70 161 0.0 0.0 0.00 0.00 0.00 61 1009.6
20260509110057 70 0 0.0 0.0 0.00 0.00 0.00 49 1009.8
20260509110012 70 161 0.0 0.0 0.00 0.00 0.00 61 1009.7
20260509104552 70 0 0.0 0.0 0.00 0.00 0.00 49 1009.6
20260509104527 70 161 0.0 0.0 0.00 0.00 0.00 60 1009.6
20260509103055 69 0 0.0 0.0 0.00 0.00 0.00 49 1009.3
20260509103009 69 161 0.0 0.0 0.00 0.00 0.00 60 1009.2
20260509101553 70 0 0.0 0.0 0.00 0.00 0.00 49 1009.4
20260509101509 70 161 0.0 0.0 0.00 0.00 0.00 60 1009.3
20260509100052 70 0 0.0 1.0 0.00 0.00 0.00 49 1009.0
20260509100023 70 161 0.0 1.0 0.00 0.00 0.00 61 1008.7
20260509094554 69 0 0.0 4.0 0.00 0.00 0.00 49 1008.7
20260509094517 70 161 0.0 3.0 0.00 0.00 0.00 60 1008.6
20260509093052 69 161 1.0 2.0 0.00 0.00 0.00 49 1008.9
20260509093006 69 161 1.0 2.0 0.00 0.00 0.00 60 1008.8
20260509091607 69 0 0.0 0.0 0.00 0.00 0.00 49 1009.1
20260509091504 69 161 0.0 0.0 0.00 0.00 0.00 60 1008.9
20260509090055 69 0 0.0 0.0 0.00 0.00 0.00 49 1009.3
20260509090003 69 161 0.0 0.0 0.00 0.00 0.00 60 1009.2
20260509084555 69 0 0.0 0.0 0.00 0.00 0.00 49 1009.3
20260509084502 69 161 0.0 0.0 0.00 0.00 0.00 60 1009.1
20260509083100 69 161 0.0 0.0 0.00 0.00 0.00 60 1009.1
20260509083054 69 0 0.0 0.0 0.00 0.00 0.00 49 1009.3
20260509081600 69 161 0.0 0.0 0.00 0.00 0.00 60 1009.2
20260509081558 69 0 0.0 0.0 0.00 0.00 0.00 49 1009.5
20260509080100 69 161 0.0 0.0 0.00 0.00 0.00 60 1009.6
20260509080059 69 0 0.0 0.0 0.00 0.00 0.00 49 1009.7
20260509074601 69 161 0.0 0.0 0.00 0.00 0.00 60 1009.6
20260509074557 70 0 0.0 0.0 0.00 0.00 0.00 49 1009.6
20260509073058 70 161 0.0 0.0 0.00 0.00 0.00 60 1009.6
20260509073054 70 0 0.0 0.0 0.00 0.00 0.00 49 1009.7
20260509071608 70 161 0.0 0.0 0.00 0.00 0.00 61 1009.7
20260509071559 70 0 0.0 0.0 0.00 0.00 0.00 50 1009.7
20260509070100 70 0 0.0 0.0 0.00 0.00 0.00 50 1010.0
20260509070056 70 161 0.0 0.0 0.00 0.00 0.00 62 1010.0
20260509064604 70 161 0.0 0.0 0.00 0.00 0.00 62 1010.2
20260509064558 70 0 0.0 0.0 0.00 0.00 0.00 50 1010.2
20260509063057 70 0 0.0 0.0 0.00 0.00 0.00 50 1010.2
20260509063052 70 161 0.0 0.0 0.00 0.00 0.00 61 1010.2
20260509061613 70 0 0.0 0.0 0.00 0.00 0.00 50 1010.4
20260509061553 70 161 0.0 0.0 0.00 0.00 0.00 61 1010.4
20260509060124 70 0 0.0 0.0 0.00 0.00 0.00 50 1010.3
20260509060104 70 161 0.0 0.0 0.00 0.00 0.00 61 1010.3
20260509054605 70 161 0.0 1.0 0.00 0.00 0.00 61 1010.3
20260509054554 70 0 0.0 1.0 0.00 0.00 0.00 50 1010.4
20260509053057 70 0 0.0 2.0 0.00 0.00 0.00 50 1010.3
20260509053050 70 161 0.0 2.0 0.00 0.00 0.00 62 1010.3
20260509051648 70 161 0.0 2.0 0.00 0.00 0.00 62 1010.1
20260509051558 70 161 0.0 2.0 0.00 0.00 0.00 50 1010.1
20260509050123 70 0 0.0 5.0 0.00 0.00 0.00 50 1010.1
20260509050055 70 161 0.0 3.0 0.00 0.00 0.00 61 1010.0
20260509044602 69 0 0.0 2.0 0.00 0.00 0.00 50 1009.8
20260509044550 69 161 0.0 1.0 0.00 0.00 0.00 61 1009.8
20260509043053 69 0 1.0 5.0 0.00 0.00 0.00 50 1009.7
20260509043045 69 161 0.0 5.0 0.00 0.00 0.00 62 1009.7
20260509041600 69 150 2.0 5.0 0.00 0.00 0.00 51 1009.7
20260509041544 69 150 2.0 5.0 0.00 0.00 0.00 63 1009.6
20260509040058 70 165 2.0 4.0 0.00 0.00 0.00 52 1009.7
20260509040044 70 165 2.0 4.0 0.00 0.00 0.00 63 1009.6
20260509034637 70 140 0.0 6.0 0.00 0.00 0.00 52 1009.6
20260509034555 70 140 1.0 4.0 0.00 0.00 0.00 63 1009.6
20260509033056 70 171 2.0 7.0 0.00 0.00 0.00 52 1009.5
20260509033042 70 171 2.0 7.0 0.00 0.00 0.00 63 1009.4
20260509031559 70 171 2.0 8.0 0.00 0.00 0.00 52 1009.5
20260509031550 70 171 2.0 7.0 0.00 0.00 0.00 63 1009.6
20260509030057 70 155 2.0 9.0 0.00 0.00 0.00 52 1009.4
20260509030042 70 153 1.0 8.0 0.00 0.00 0.00 64 1009.3
20260509024555 70 167 3.0 6.0 0.00 0.00 0.00 53 1009.3
20260509024541 70 167 3.0 6.0 0.00 0.00 0.00 64 1009.1
20260509023101 70 360 0.0 5.0 0.00 0.00 0.00 54 1009.0
20260509023053 70 360 0.0 5.0 0.00 0.00 0.00 65 1008.9
20260509021555 70 360 0.0 4.0 0.00 0.00 0.00 54 1008.9
20260509021540 70 360 1.0 3.0 0.00 0.00 0.00 65 1008.9
20260509020058 70 360 0.0 1.0 0.00 0.00 0.00 55 1008.8
20260509020047 70 360 0.0 1.0 0.00 0.00 0.00 67 1008.7
20260509014553 70 0 0.0 4.0 0.00 0.00 0.00 55 1008.2
20260509014539 70 360 0.0 4.0 0.00 0.00 0.00 67 1008.2
20260509013103 70 138 1.0 5.0 0.00 0.00 0.00 68 1008.2
20260509013059 70 138 1.0 5.0 0.00 0.00 0.00 57 1008.0
20260509011553 71 125 2.0 8.0 0.00 0.00 0.00 57 1007.9
20260509011538 71 125 1.0 8.0 0.00 0.00 0.00 69 1008.1
20260509010054 72 136 2.0 8.0 0.00 0.00 0.00 57 1008.1
20260509010037 72 136 2.0 5.0 0.00 0.00 0.00 69 1008.2
20260509004554 72 173 5.0 10.0 0.00 0.00 0.00 58 1008.3
20260509004536 72 163 4.0 8.0 0.00 0.00 0.00 70 1008.4
20260509003103 73 151 2.0 5.0 0.00 0.00 0.00 59 1008.8
20260509003034 73 146 2.0 5.0 0.00 0.00 0.00 70 1008.8
20260509001553 73 148 2.0 5.0 0.00 0.00 0.00 59 1009.0
20260509001532 73 148 2.0 5.0 0.00 0.00 0.00 70 1008.8
20260509000104 73 145 2.0 5.0 0.00 0.00 0.00 59 1009.2
20260509000031 73 145 2.0 5.0 0.00 0.00 0.00 70 1009.1
20260508234559 73 145 2.0 4.0 0.00 0.00 0.00 59 1009.2
20260508234531 73 146 2.0 4.0 0.00 0.00 0.00 70 1009.1
20260508233103 74 146 1.0 4.0 0.00 0.00 0.00 58 1009.8
20260508233033 74 146 1.0 3.0 0.00 0.00 0.00 70 1009.9
20260508231559 74 168 1.0 5.0 0.00 0.00 0.00 58 1009.7
20260508231529 74 168 1.0 5.0 0.00 0.00 0.00 69 1009.7
20260508230106 74 172 2.0 6.0 0.00 0.00 0.00 58 1009.5
20260508230047 74 172 1.0 5.0 0.00 0.00 0.00 69 1009.4
20260508224555 74 184 3.0 6.0 0.00 0.00 0.00 57 1009.4
20260508224553 74 214 4.0 6.0 0.00 0.00 0.00 69 1009.3
20260508223057 74 163 4.0 10.0 0.00 0.00 0.00 57 1009.1
20260508223032 75 164 4.0 8.0 0.00 0.00 0.00 68 1009.0
20260508221554 74 163 4.0 7.0 0.00 0.00 0.00 57 1009.2
20260508221523 74 165 3.0 7.0 0.00 0.00 0.00 69 1009.2
20260508220056 74 175 2.0 8.0 0.00 0.00 0.00 57 1009.4
20260508220022 74 166 2.0 8.0 0.00 0.00 0.00 69 1009.2
20260508214603 74 169 4.0 7.0 0.00 0.00 0.00 57 1009.4
20260508214520 74 170 4.0 7.0 0.00 0.00 0.00 69 1009.3
20260508213052 74 128 2.0 5.0 0.00 0.00 0.00 57 1009.6
20260508213017 74 128 2.0 5.0 0.00 0.00 0.00 68 1009.6
20260508211559 74 178 3.0 8.0 0.00 0.00 0.00 57 1009.9
20260508211515 74 163 4.0 8.0 0.00 0.00 0.00 68 1009.9
20260508210057 74 175 3.0 7.0 0.00 0.00 0.00 57 1010.1
20260508210015 74 178 3.0 7.0 0.00 0.00 0.00 68 1010.1
20260508204559 74 118 3.0 9.0 0.00 0.00 0.00 56 1010.0
20260508204518 74 135 2.0 7.0 0.00 0.00 0.00 67 1009.9
20260508203054 75 144 2.0 10.0 0.00 0.00 0.00 55 1010.0
20260508203011 75 136 2.0 10.0 0.00 0.00 0.00 66 1010.0
20260508201605 74 94 3.0 7.0 0.00 0.00 0.00 55 1010.0
20260508201507 74 117 4.0 7.0 0.00 0.00 0.00 66 1010.1
20260508200056 74 89 4.0 8.0 0.00 0.00 0.00 54 1010.1
20260508200005 74 89 4.0 8.0 0.00 0.00 0.00 65 1010.1
20260508194622 73 65 3.0 9.0 0.00 0.00 0.00 53 1010.1
20260508194601 73 116 2.0 8.0 0.00 0.00 0.00 65 1010.1
20260508193128 71 101 3.0 9.0 0.00 0.00 0.00 65 1010.4
20260508193106 71 101 2.0 9.0 0.00 0.00 0.00 54 1010.3
20260508191601 71 142 3.0 7.0 0.00 0.00 0.00 54 1010.7
20260508191554 71 142 3.0 7.0 0.00 0.00 0.00 66 1010.7
20260508190056 70 78 2.0 7.0 0.00 0.00 0.00 54 1010.8
20260508190054 70 78 2.0 5.0 0.00 0.00 0.00 66 1010.9
20260508184612 70 84 3.0 7.0 0.00 0.00 0.00 66 1011.1
20260508184556 70 96 3.0 7.0 0.00 0.00 0.00 54 1011.0
20260508183054 69 142 3.0 9.0 0.00 0.00 0.00 55 1011.3
20260508183047 69 142 3.0 9.0 0.00 0.00 0.00 66 1011.2
20260508181622 68 148 3.0 11.0 0.00 0.00 0.00 54 1011.4
20260508181547 68 147 4.0 9.0 0.00 0.00 0.00 66 1011.5
20260508180058 69 343 2.0 8.0 0.00 0.00 0.00 54 1011.7
20260508180048 69 343 3.0 6.0 0.00 0.00 0.00 65 1011.7
20260508174602 68 88 3.0 10.0 0.00 0.00 0.00 53 1012.2
20260508174557 68 88 3.0 7.0 0.00 0.00 0.00 65 1012.2
20260508173055 68 144 3.0 7.0 0.00 0.00 0.00 52 1012.5
20260508173038 68 142 2.0 7.0 0.00 0.00 0.00 64 1012.5
20260508171555 67 64 3.0 9.0 0.00 0.00 0.00 52 1012.5
20260508171546 67 59 4.0 9.0 0.00 0.00 0.00 64 1012.6
20260508170054 66 115 2.0 10.0 0.00 0.00 0.00 52 1012.8
20260508170037 66 85 3.0 8.0 0.00 0.00 0.00 63 1013.0
20260508164552 65 111 4.0 9.0 0.00 0.00 0.00 51 1012.7
20260508164536 65 106 5.0 9.0 0.00 0.00 0.00 62 1012.8
20260508163054 65 37 2.0 7.0 0.00 0.00 0.00 48 1012.9
20260508163032 65 52 1.0 7.0 0.00 0.00 0.00 60 1013.0
20260508161604 63 91 2.0 7.0 0.00 0.00 0.00 49 1013.4
20260508161537 63 80 1.0 7.0 0.00 0.00 0.00 60 1013.6
20260508160054 63 118 0.0 10.0 0.00 0.00 0.00 49 1013.6
20260508160031 63 113 0.0 4.0 0.00 0.00 0.00 61 1013.8
20260508154558 63 103 0.0 4.0 0.00 0.00 0.00 49 1013.4
20260508154523 63 84 1.0 4.0 0.00 0.00 0.00 60 1013.6
20260508153056 63 85 2.0 7.0 0.00 0.00 0.00 49 1013.2
20260508153032 63 82 1.0 7.0 0.00 0.00 0.00 61 1013.3
20260508151602 63 81 2.0 7.0 0.00 0.00 0.00 50 1013.6
20260508151535 63 80 2.0 7.0 0.00 0.00 0.00 61 1013.8
20260508150059 62 150 1.0 3.0 0.00 0.00 0.00 50 1013.9
20260508150023 62 360 1.0 3.0 0.00 0.00 0.00 62 1014.3
20260508144556 61 0 0.0 2.0 0.00 0.00 0.00 50 1014.5
20260508144517 61 360 0.0 2.0 0.00 0.00 0.00 61 1014.8
20260508143059 61 0 0.0 2.0 0.00 0.00 0.00 50 1014.7
20260508143016 61 360 0.0 2.0 0.00 0.00 0.00 61 1014.9
20260508141556 61 360 2.0 5.0 0.00 0.00 0.00 50 1014.2
20260508141515 61 360 3.0 5.0 0.00 0.00 0.00 61 1014.4
20260508140058 61 0 1.0 4.0 0.00 0.00 0.00 50 1014.3
20260508140014 61 360 0.0 4.0 0.00 0.00 0.00 61 1014.7